COSMOS 2376 (GLONASS)

Satellite information

Favourite Embed

Satellite Type and Status

PAYLOADIN ORBIT

Key statistics

Satellite COSMOS 2376 (GLONASS) at a glance.

Uptime

9093

Days in orbit

Revolutions

≈ 2.1

Per day

Orbit

MEO

Medium Earth Orbit

Inclination

65.4

Latest

Satellite identification and parameters

Extended collection of information and parameters for COSMOS 2376 (GLONASS).

Object identification

Identified? True

Debris? False

Object name: COSMOS 2376 (GLONASS)

International designator: 2000-063B

Object number (NORAD): 26565

Object ID (CCSDS): 26565

Country: COMMONWEALTH OF INDEPENDENT STATES (CIS)

Current information (Y/N): Y

RCS size: LARGE

Orbital parameters

Period: 675.731 minutes

Inclination: 65.3691 deg

SMA: 25507.97 km

Apoapsis: 19138.968 km

Periapsis: 19120.702 km

RAAN: 323.6736 deg

Eccentricy: 0.00035806

Argument of periapsis: 21.2399 deg

Mean anomaly: 345.9525 deg

Mean motion: 2.13102682 rev/day

Mean motion (dot): -0.00000054 rev/day2

B* drag term: 0.0 1/REarth

Two-line elements (TLE)

Creation date: Sept. 2, 2025, 10:20 a.m.

Reference frame: TEME

Reference center: EARTH

Epoch: Sept. 2, 2025, 2:21 a.m. UTC

TLE line 0: 0 COSMOS 2376 (GLONASS)

TLE line 1: 1 26565U 00063B 25245.09820220 -.00000054 00000-0 00000-0 0 9994

TLE line 2: 2 26565 65.3691 323.6736 0003581 21.2399 345.9525 2.13102682193684

Live tracking on map

Real-time ground track for satellite COSMOS 2376 (GLONASS).

In-orbit conjunctions

There are no conjunctions computed for COSMOS 2376 (GLONASS), at the moment. Check back to stay up to date, as we update our databases every day.

Go to all conjunctions

Associated space launch

GLONASS navigation satellites

COSMOS 2376 (GLONASS) was lifted into orbit during the mission ‘Proton | Uragan 75 to 77’, on board a Proton space rocket.

The launch took place on Oct. 13, 2000, 2:12 p.m. from 81/24 (81P).

For more information about the launch, click the button.

Launch to space Proton | Uragan 75 to 77
Proton | Uragan 75 to 77

Agency: N/A

Status: Launch Successful

Launch date: Oct. 13, 2000, 2:12 p.m. UTC

Rocket: Proton

Launch pad: 81/24 (81P)

Location: Baikonur Cosmodrome, Republic of Kazakhstan

...

Latest news about this satellite

There are no fresh news available about this satellite. Check back as we update our databases every day.


Newsletter sign-up

Weekly statistics, charts and insights to help you stay on top of the space industry.